sat.trackr.live / text

‹ back to catalog

GEESAT-5 02

NORAD 65551 · 2025-201B

PAYLOAD ACTIVE UNKNOWN

§ Identity

Operator
Country
PRC
Launch date
2025-09-08
Launch site
YSLA
Launch vehicle
Mass (kg)
RCS (m²)

External: N2YO · Heavens-Above · Gunter

§ Orbital elements

Epoch: 2026-05-25T00:40:38.428320Z

Period
97.03 min
Inclination
49.9849°
Eccentricity
0.0008625
Mean motion
14.84098554 rev/d
Perigee alt
610.4 km
Apogee alt
622.4 km
Semi-major
6,994.6 km
B*
1.6900e-4
RAAN
146.8454°
Arg perigee
239.7983°
Mean anomaly
120.2102°
Rev number
3,835

§ Raw data

GEESAT-5 021 65551U 25201B   26145.02822255  .00001198  00000+0  16900-3 0  99932 65551  49.9849 146.8454 0008625 239.7983 120.2102 14.84098554 38356

JSON: /api/v1/satellites/65551 · /tle

For live sub-satellite position, see the globe view (requires WebGL).

§ Visibility from observer

Set your observer location to see the next 7 days of passes ≥ 10°. The values pass through the URL so the page stays shareable.

No JS? Fill the form by hand. The geolocation button needs JavaScript.